Regional Weather Roundup
Issued by NWS Jackson, KY

Home | Current Version | Previous Version | Graphics & Text | Print | Product List | Glossary On
Versions: 1 2 3 4 5 6 7 8 9 10 11 12 13 14 15 16 17 18 19 20 21 22 23 24 25 26 27 28 29 30 31 32 33 34 35 36 37 38 39 40 41 42 43 44 45 46 47 48 49 50
000
ASUS43 KJKL 050410
RWRJKL

EAST KENTUCKY HOURLY WEATHER ROUNDUP
NATIONAL WEATHER SERVICE JACKSON KY
1200 AM EDT THU MAY 05 2016

NOTE: "FAIR" INDICATES FEW OR NO CLOUDS BELOW 12,000 FEET WITH
NO SIGNIFICANT WEATHER AND/OR OBSTRUCTIONS TO VISIBILITY.

* THESE REPORTS ARE NOT UNDER NWS QUALITY CONTROL AND MAY NOT
  REPORT WEATHER SUCH AS PRECIPITATION AND FOG.

KYZ079-080-083-085-087-088-110-112-115-119-120-050500
...EASTERN KENTUCKY...

CITY           SKY/WX    TMP DP  RH WIND       PRES   REMARKS
JACKSON        CLOUDY    46  41  82 NW6       29.75F
LONDON         CLEAR     47  42  83 CALM      29.77R
SOMERSET*      CLOUDY    46  46 100 CALM      29.80S
MONTICELLO*    CLOUDY    49  46  90 W14       29.82F
WILLIAMSBURG*  CLOUDY    45  45 100 CALM      29.78S VSB<1/4
MIDDLESBORO*   CLOUDY    46  46 100 CALM      29.78S
HARLAN APT*    CLOUDY    45  45 100 SW6       29.76R
HAZARD APT*    CLOUDY    46  46 100 NW5       29.75F
BLACK MTN*       N/A     39  39 100 N10         N/A  WCI  32
PIKE CO APT*   DRIZZLE   47  47  98 NW10      29.74R
BIG SANDY APT* CLOUDY    47  46  95 CALM      29.74F
MOREHEAD APT*  CLEAR     45  39  81 NW3       29.77F
$$

KYZ035-036-041-042-044-050-067-078-099-050500
...CENTRAL KENTUCKY...

CITY           SKY/WX    TMP DP  RH WIND       PRES   REMARKS
MT STERLING*   CLEAR     43  41  93 NW3       29.79S
FLEMING/MASON* CLEAR     43  37  78 NW7       29.77S
DANVILLE*      CLOUDY    46  41  81 N5        29.81R
RICHMOND*      CLEAR     46  39  76 NW5       29.78S
LEXINGTON      CLOUDY    48  35  60 NW10      29.79S
FRANKFORT      CLOUDY    49  37  63 NW6       29.79S
LOUISVILLE     PTCLDY    49  39  68 NW9       29.81S
LEBANON*         N/A     48  41  76 NW5       29.81S
BOWLING GREEN  PTCLDY    53  41  63 NW6       29.85R
$$

KYZ091>093-OHZ055-061-077-WVZ005-015-034-035-042-050500
...SOUTHERN OHIO/WEST VIRGINIA...

CITY           SKY/WX    TMP DP  RH WIND       PRES   REMARKS
COVINGTON      MOCLDY    45  35  68 NW7       29.76F
COLUMBUS       CLOUDY    45  36  70 NW12      29.72S
DAYTON         CLOUDY    43  35  73 NW9       29.74F
WILMINGTON     CLOUDY    46  36  68 NW9       29.72F
HUNTINGTON     MOCLDY    48  44  86 NW3       29.73S
CHARLESTON     LGT RAIN  51  49  92 NW6       29.69F FOG
PINEVILLE*     CLOUDY    48  46  90 MISG      29.75F
BECKLEY        CLOUDY    47  44  90 CALM      29.69F
$$

VAZ002-007-008-TNZ017-027-036-066-071-050500
...SOUTHWEST VIRGINIA/EAST TENNESSEE...

CITY           SKY/WX    TMP DP  RH WIND       PRES   REMARKS
WISE*          DRIZZLE   43  43 100 CALM      29.74S
BRISTOL        LGT RAIN  48  44  86 SW9       29.74R
MORRISTOWN*    CLOUDY    46  46 100 S5        29.76S
SEVIERVILLE*   MOCLDY    48  46  93 CALM      29.76F
KNOXVILLE      PTCLDY    49  47  93 SW5       29.77F
OAK RIDGE      MOCLDY    49  47  93 CALM      29.79S
CROSSVILLE     PTCLDY    47  44  90 W6        29.80S
NASHVILLE      PTCLDY    54  41  61 N7        29.85R
$$

...KEY TO REMARKS...
VSB - VISIBILITY IN MILES
WCI - WIND CHILL INDEX
HX  - HEAT INDEX

$$



USA.gov is the U.S. government's official web portal to all federal, state and local government web resources and services.